OBJECT AQ, 57204

Orbit data source: Space-Track

You're viewing an Uncataloged Satellite

Recently launched and/or uncataloged satellites may have evolving metadata. Metadata may include but not limited to: Owner, Maufacturer, Bus, Motor, and Mission.

OBJECT AQ, 57204 is a satellite in SSO that was launched on Tue, 27 Jun 2023 UTC via a SOYUZ-2-1B launch vehicle from the Vostochny Cosmodrome (VOSTO). Unknown objects in Earth's orbit typically refer to objects detected orbiting the Earth but have not yet been identified or cataloged. These objects could be anything from previously untracked satellites, spent rocket stages, debris from satellite collisions, or even natural meteoroids temporarily captured by Earth's gravity.

Loading next visibility...
Identifier
57204, 2023-091AQ
Orbit
SSO
Country
Flag of TBDTBD
Related business
Manufacturer
Sputniks
Mission
Operational Commercial Communications
Bus & Motor
CUBESAT 3U?, Unknown motor
Mass
3 kg wet, 3 kg dry
Launch date (UTC)
2023-06-27 (3 years ago)
Launch vehicle
SOYUZ-2-1B
Launch site
Vostochny Cosmodrome (VOSTO)
Object type
Unknown
Shape & HBR
Box, 0.1 m
Radar Cross Section
0.035 m², Small (<0.1 m²)

Expand to show TLE details & history
Last TLE update: 18 hours ago

TLE from 18 hours ago
0 OBJECT AQ
1 57204U 23091AQ  26145.55924801  .00018970  00000-0  51778-3 0  9991
2 57204  97.5103 215.7764 0007922 141.4925 218.6886 15.37444548161296
Epoch: 2026-05-25T13:25Z
TLE epoch observation values (Epoch: 2026-05-25T13:25:19.028Z)
Latitude
0.00002°
Longitude
131.30181°
Altitude
461.007 km
Speed
7.634 km/s
True Right ascension
14h 23m 06s
True Declination
0° 00' 00"
Sunlit
Object was in full shadow at epoch
Visualization orbit readout
Latitude
Unknown
Longitude
Unknown
Altitude
Unknown
Speed
Unknown
Apparent Right ascension
Unknown
Apparent Declination
Unknown
Sunlit
N/A
Visualization observer readout
Local Sidereal Time
16:26:36
Azimuth
Unknown
Elevation
Unknown
Doppler factor
Unknown
Orbital elements
Apogee altitude
456.026 km
Perigee altitude
445.207 km
Semi-major axis
6,828.753 km
Eccentricity
0.00079
Inclination
97.5103°
RAAN
215.7764°
Arg. of periapsis
141.4925°
True anomaly
218.6319°
Mean anomaly
218.6886°
Eccentric anomaly
218.66024°
Mean motion
3.84619 °/min
Orbital period
93.6 mins
BSTAR
0.00051778
Loading maneuver chart data...
Computing Atmospheric mass density...
Loading historical data...
Loading historical data...
Loading historical data...
Loading historical data...
Loading historical data...
Loading historical data...
Loading historical data...

Documentation

Showing up to 5 results
|